Location: Hillsboro
(38.3483°N, 97.1938°W)
Time: 06:06:31
(UTC-05:00)

Daily predictions for brighter satellites

Satellite Brightness Start Highest point End
(mag) Time Altitude Azimuth Time Altitude Azimuth Time Altitude Azimuth
Cosmos 1371 Rocket 4.2 21:13:44 10° N 21:19:00 60° ENE 21:24:10 10° SSE
USA 186 2.2 21:20:32 10° S 21:23:38 61° W 21:26:37 10° NNW
Cosmos 2082 Rocket 2.8 21:23:34 10° SSE 21:28:38 35° ESE 21:33:42 10° NE
Meteor 1-29 3.0 21:27:23 10° NNE 21:30:41 52° E 21:33:57 10° S
Meteor 1-23 Rocket 4.2 21:26:45 10° S 21:32:19 80° E 21:37:57 10° NNE
Cosmos 1743 4.3 21:29:16 10° NNW 21:32:53 37° W 21:36:29 10° SSW
Cosmos 2278 4.2 21:28:42 10° N 21:34:11 46° ENE 21:39:15 12° SE
Cosmos 2058 Rocket 4.3 21:30:41 10° NNE 21:34:22 25° ENE 21:37:34 12° SE
Helios 1A 3.1 21:38:55 10° S 21:43:07 79° WSW 21:47:20 10° NNW
CZ-4B DEB 2.5 21:40:35 10° SSE 21:43:32 80° ENE 21:46:32 10° N
Cosmos 1697 Rocket 3.9 21:39:33 10° N 21:44:22 28° ENE 21:48:28 13° ESE
Cosmos 1666 4.0 21:41:21 10° NNW 21:44:52 39° W 21:48:22 10° SSW
Helios 1B rocket 2.9 21:46:49 10° N 21:50:56 64° WNW 21:55:00 10° SSW
Cosmos 2369 3.8 21:49:57 10° NNW 21:55:41 69° ENE 22:00:13 16° SSE
Cosmos 1833 Rocket 2.7 21:51:33 10° S 21:57:01 57° ESE 22:02:32 10° NNE
TELKOM 3 4.0 21:55:30 10° NW 21:57:41 40° NE 21:59:15 20° E
Cosmos 921 Rocket 3.0 21:53:56 10° NNW 21:58:24 72° ENE 22:01:39 17° SSE
Cosmos 2181 Rocket 4.1 21:53:19 10° S 21:59:32 61° E 22:05:42 10° NNE
Cosmos 2228 3.6 21:55:52 10° N 21:59:52 38° ENE 22:02:17 20° SE
Cosmos 1624 Rocket 4.3 21:55:38 10° NNW 22:00:54 69° WSW 22:05:57 11° S
Resurs 01 Rocket 4.2 21:58:23 10° SW 22:01:28 18° W 22:04:35 10° NW
Okean 2 4.1 22:01:18 10° SSW 22:05:17 55° W 22:09:19 10° N
Meteor 1-15 Rocket 4.4 22:00:00 10° NNW 22:05:33 71° W 22:11:04 10° S
SPOT 5 3.5 22:05:12 20° ESE 22:07:27 34° ENE 22:11:26 10° N
Cosmos 962 Rocket 4.4 22:07:54 10° N 22:14:09 88° E 22:19:31 14° S
Envisat 4.4 22:11:17 10° SSW 22:15:55 36° W 22:20:36 10° NNW
Cosmos 1515 4.1 22:13:05 10° SSW 22:16:50 61° W 22:20:37 10° N
MOS 1-B Rocket 4.1 22:13:00 19° SSE 22:17:24 73° ENE 22:24:04 10° N
Lacrosse 5 3.3 22:18:42 19° E 22:18:42 19° E 22:21:14 10° ENE
H-2A R/B 3.0 22:16:12 21° ESE 22:18:34 32° ENE 22:23:02 10° N
Cosmos 2056 Rocket 4.3 22:15:59 10° NNW 22:20:54 46° WSW 22:25:15 13° S
OAO 2 Rocket 4.4 22:17:05 10° W 22:21:19 29° SSW 22:23:08 23° SSE
GPS 2-04 Rocket1 3.9 22:21:33 10° SW 22:23:19 21° SSW 22:23:19 21° SSW
Cosmos 1437 Rocket 4.2 22:21:56 10° NNW 22:25:29 35° W 22:28:57 11° SSW
Cosmos 1066 Rocket 4.1 22:20:56 14° S 22:25:37 71° E 22:31:16 10° NNE
Cosmos 1892 Rocket 4.3 22:23:31 10° SSW 22:27:50 53° W 22:32:10 10° N
ARGOS 3.2 22:24:41 25° SSE 22:27:51 65° ENE 22:33:14 10° N
SL-8 Rocket 4.0 22:24:21 10° N 22:30:39 73° E 22:34:39 24° SSE
Cosmos 1602 Rocket 3.7 22:30:43 33° SSE 22:32:15 50° E 22:36:26 10° NNE
Cosmos 1269 Rocket 4.1 22:31:13 23° S 22:34:22 54° ESE 22:39:32 10° NNE
Cosmos 1420 Rocket 4.2 22:29:29 10° N 22:34:41 58° ENE 22:36:56 32° SE
Cosmos 1980 Rocket 2.8 22:29:19 10° N 22:34:41 42° ENE 22:37:10 27° ESE
Hubble Space Telescope 2.5 22:32:08 10° SW 22:34:14 19° SSW 22:34:14 19° SSW
Cosmos 1048 Rocket 4.0 22:33:19 23° S 22:36:25 58° ESE 22:41:30 10° NNE
Cosmos 2366 rocket 4.0 22:32:37 10° N 22:38:43 61° E 22:41:46 30° SSE
MetOp-B 4.2 22:35:33 24° S 22:38:53 79° WSW 22:44:15 10° NNW
Meteor 1-4 Rocket 2.3 22:37:55 10° N 22:41:29 80° E 22:42:08 56° SSE
ERS-1 Rocket 3.8 22:41:26 17° SSW 22:45:00 47° W 22:49:50 10° NNW
ATLAS CENTAUR R/B 3.5 22:43:51 10° NNE 22:45:24 12° NE 22:46:29 11° ENE
Cosmos 2322 Rocket 3.9 22:43:24 10° N 22:47:38 21° NE 22:50:04 16° E
Tiangong 2 1.5 22:46:03 10° WNW 22:49:12 56° NNE 22:49:34 51° NE
Cosmos 1452 Rocket 3.8 22:47:21 10° NNW 22:52:34 62° WSW 22:55:04 30° S
Cosmos 1809 Rocket 4.4 22:49:24 10° N 22:55:31 89° E 22:58:31 32° S
DMSP B5D2-2 4.2 22:51:37 10° NNE 22:56:49 55° E 22:58:15 42° SSE
CARTOSAT-1 4.3 22:57:53 35° E 22:58:23 37° ENE 23:02:20 10° N
Cosmos 1766 3.1 22:57:01 10° N 23:00:53 66° E 23:01:05 64° ESE
Cosmos 1953 3.8 23:00:10 10° NNE 23:03:17 25° ENE 23:03:17 25° ENE
Landsat 7 3.8 23:06:27 53° SE 23:07:28 71° ENE 23:12:13 10° N
SPOT 1/Viking Rocket 3.6 23:08:37 41° S 23:10:26 72° WSW 23:15:36 10° NNW
Meteor 1-21 4.1 23:08:15 37° S 23:10:38 84° E 23:16:25 10° N
Meteor 2-16 Rocket 4.4 23:05:03 10° N 23:11:13 76° E 23:13:19 43° SSE
Cosmos 2082 Rocket 4.0 23:07:41 10° WSW 23:12:41 31° WNW 23:17:41 10° N
Cosmos 158 Rocket 4.3 23:10:47 19° SSW 23:14:31 65° WNW 23:19:54 10° NNE
USA 229 DEB 3.8 23:10:29 10° NNW 23:17:42 89° ENE 23:20:30 42° SSE
USA 229 3.8 23:10:35 10° NNW 23:17:48 88° ENE 23:20:36 42° SSE
Cosmos 2251 Rocket 4.1 23:20:44 41° E 23:20:44 41° E 23:25:33 10° NNE
Cosmos 1758 Rocket 4.4 23:21:48 37° ENE 23:21:48 37° ENE 23:25:12 10° NNE
Terra 1.7 23:21:57 63° ESE 23:22:31 70° ENE 23:27:16 10° N
H-2A R/B 2.1 23:22:24 63° E 23:22:42 65° ENE 23:27:11 10° N
Lacrosse 5 rocket 3.1 23:20:02 10° NNW 23:24:08 29° NE 23:25:29 25° ENE
Cosmos 1805 3.5 23:22:29 10° N 23:25:54 62° NNE 23:25:54 62° NNE
Cosmos 1812 Rocket 3.9 23:23:30 10° NNW 23:27:55 60° W 23:28:30 54° SW
Cosmos 1697 Rocket 3.6 23:23:14 10° NW 23:28:23 38° WSW 23:30:13 30° SW
CZ-4B R/B 3.7 23:28:34 10° NNE 23:33:38 55° E 23:33:38 55° E
Iridium 2 4.0 23:30:26 10° N 23:33:43 63° NNW 23:33:43 63° NNW
Cosmos 494 Rocket 3.9 23:36:27 65° ESE 23:36:27 65° ESE 23:41:34 10° NNE
Cosmos 1544 3.8 23:34:45 10° NNW 23:37:39 51° NW 23:37:39 51° NW
SL-16 R/B 2.5 23:37:06 10° NNW 23:42:39 54° ENE 23:43:28 50° E
Cosmos 2360 4.4 23:39:57 10° NNW 23:45:33 59° WSW 23:46:28 52° SSW
Cosmos 1825 Rocket 3.7 23:47:31 67° WNW 23:47:31 67° WNW 23:51:41 10° N
Nadezhda 3 Rocket 4.1 23:45:20 43° SSW 23:47:32 73° W 23:53:53 10° N
Cosmos 1758 3.8 23:44:22 10° N 23:47:38 58° NNW 23:47:38 58° NNW
Cosmos 1953 Rocket 3.7 23:49:01 72° NNE 23:49:01 72° NNE 23:53:02 10° N
Cosmos 2239 Rocket 4.4 23:44:03 10° N 23:50:15 74° E 23:51:15 62° SE
Cosmos 1271 Rocket 4.0 23:48:28 10° NNW 23:51:48 34° W 23:51:48 34° W
Cosmos 1733 4.5 23:52:22 10° N 23:54:54 36° NNE 23:54:54 36° NNE
